This is the latest recevied weather packets stored in our database for station/object AB4KN. If no packets are shown the sender has not sent any weather packets the latest 10 day(s).
| Time | Temp. | Humidity | Pressure | Rain* | Wind** | Luminosity | Snow |
|---|---|---|---|---|---|---|---|
| 1777726310 | 11.11° C | 89% | 1017.6 hPa | 0 mm | - | 21 W/m² | - |
| 1777726007 | 11.11° C | 89% | 1017.7 hPa | 0 mm | - | 26 W/m² | - |
| 1777725704 | 11.11° C | 89% | 1017.6 hPa | 1.78 mm | - | 17 W/m² | - |
| 1777725402 | 11.11° C | 89% | 1017.6 hPa | 1.78 mm | - | 16 W/m² | - |
| 1777725099 | 11.67° C | 89% | 1018.2 hPa | 0 mm | - | 12 W/m² | - |
| 1777724795 | 11.67° C | 89% | 1018.5 hPa | 0 mm | - | 4 W/m² | - |
| 1777724492 | 11.67° C | 89% | 1018.6 hPa | 0 mm | - | 7 W/m² | - |
| 1777724190 | 11.11° C | 89% | 1018 hPa | 0 mm | - | 6 W/m² | - |
| 1777723887 | 11.11° C | 89% | 1017.4 hPa | 0 mm | - | 8 W/m² | - |
| 1777723584 | 11.11° C | 89% | 1017.3 hPa | 0 mm | - | 4 W/m² | - |
| 1777723281 | 11.67° C | 89% | 1016.9 hPa | 0 mm | - | 4 W/m² | - |
| 1777722979 | 11.67° C | 89% | 1017.1 hPa | 0 mm | - | 3 W/m² | - |
| 1777722674 | 11.67° C | 89% | 1017.3 hPa | 0 mm | - | 2 W/m² | - |
| 1777722371 | 11.67° C | 89% | 1017.5 hPa | 0 mm | - | 2 W/m² | - |
| 1777722068 | 11.67° C | 89% | 1018.1 hPa | 0 mm | - | 3 W/m² | - |
| 1777721765 | 11.67° C | 89% | 1017.7 hPa | 0 mm | - | 1 W/m² | - |
| 1777721464 | 11.67° C | 89% | 1017.4 hPa | 0 mm | - | 2 W/m² | - |
| 1777721161 | 11.67° C | 89% | 1017.1 hPa | 0 mm | - | 0 W/m² | - |
| 1777720859 | 11.67° C | 89% | 1016.7 hPa | 0 mm | - | 1 W/m² | - |
| 1777720556 | 11.67° C | 89% | 1017.1 hPa | 0 mm | - | 0 W/m² | - |
| 1777720253 | 12.22° C | 89% | 1017.2 hPa | 0 mm | - | 0 W/m² | - |
| 1777719950 | 12.22° C | 89% | 1017.1 hPa | 1.27 mm | - | 0 W/m² | - |
| 1777719648 | 12.22° C | 89% | 1017.4 hPa | 1.27 mm | - | 0 W/m² | - |
| 1777719345 | 12.22° C | 89% | 1017.7 hPa | 1.27 mm | - | 0 W/m² | - |
| 1777719043 | 12.22° C | 89% | 1017.7 hPa | 0 mm | - | 0 W/m² | - |
* Rain latest hour (hover to see other rain measurements)
** Current wind speed in m/s (hover to see current wind gust speed)